Вернуться в каталог

FENGYUN 1C DEB

АктивенPO
NORAD 31938·DEBRIS·🇨🇳 China

Запущен May 10, 1999 с Taiyuan Satellite Launch Center

Loading…

Ближайшие Пролёты (ближайшие 24 часа)

TLE

СвежийSource: Space-Track

Эпоха: Sep 13, 2026, 11:38 UTC

1 31938U 99025CMP 26256.48499584  .00003722  00000-0  25751-3 0  9998
2 31938  98.8950 331.2958 0142967 254.6136 103.9250 14.98550400 32407

Отслеживайте FENGYUN 1C DEB в реальном времени с AllMySat

Download on the App Store